Location: San Antonio
(29.4240°N, 98.4930°W)
Time: 03:05:08
(UTC-05:00)

Tiros 1 despin weight - Visible Passes

Search period start: 15 July 2024 00:00
Search period end: 25 July 2024 00:00
Orbit: 576 x 620 km, 48.2° (Epoch: 14 July)

Date Brightness Start Highest point End Pass type
(mag) Time Alt. Az. Time Alt. Az. Time Alt. Az.
15 Jul ? 03:13:43 14° ENE 03:13:43 14° ENE 03:14:23 10° ENE visible
15 Jul ? 04:50:21 23° NW 04:51:26 25° NNW 04:55:07 10° NNE visible
16 Jul ? 03:23:09 20° NE 03:23:09 20° NE 03:24:36 10° NE visible
16 Jul ? 04:59:47 13° WNW 05:01:47 16° NNW 05:04:35 10° NNE visible
17 Jul ? 03:32:33 24° NNE 03:32:33 24° NNE 03:34:30 10° NE visible
17 Jul ? 05:11:00 10° NW 05:12:16 11° NNW 05:13:31 10° N visible
18 Jul ? 03:41:54 22° N 03:41:54 22° N 03:44:11 10° NNE visible
19 Jul ? 03:51:13 16° NNW 03:51:13 16° NNW 03:53:37 10° NNE visible
20 Jul ? 04:00:28 11° NNW 04:01:14 11° NNW 04:02:33 10° N visible
21 Jul ? 02:33:05 10° NNE 02:33:05 10° NNE 02:33:10 10° NNE visible
22 Jul ? 02:42:17 11° N 02:42:17 11° N 02:42:35 10° NNE visible
23 Jul ? 02:51:27 10° N 02:51:27 10° N 02:51:31 10° N visible
23 Jul ? 06:14:27 10° N 06:15:57 11° NNE 06:17:28 10° NE visible
